www.pogodaiklimat.ru

Погода и климат >> Архив погоды >> Финляндия >> Турку


ПОГОДА в Турку

  • Прогноз погоды в Турку
  • Монитор погоды в Турку

АРХИВ ПОГОДЫ в Турку

Время (UTC), дата Ветер
(напр.,м/с)
 
Видим.   Явления Облачность Т
(С)
Тd
(С)
f
(%)
Тe
(С)
Тes
(С)
Комфортность P
(гПа)
Po
(гПа)
Тmin
(С)
Tmax
(С)
R
(мм)
R24
(мм)
S
(см)
15 18.08 ЮВ 3-5
{5}
45 км {ливн. осадки} 9/5 1500 м
[]
+19.2 +16.5 84 +21 +22 комфорт 1008.4 1007.3
18 18.08 ЮВ 4-7
{8}
11 км сильн. дождь {ливн. осадки} 9/3 1500 м
[]
+18.4 +15.3 82 +19 +19 1007.0 1005.9 +16.2 +19.2 3
21 18.08 ЮВ 5-8
{9}
14 км слаб. дождь 10/0
[]
+17.8 +15.7 88 +17 +17 1006.3 1005.2 0.1
00 19.08 ЮВ 5-7
{7}
3200 м сильн. дождь {ливн. осадки} 10/10 100 м
[]
+16.5 +16.3 99 +16 +16 1004.5 1003.5 5
03 19.08 ЮВ 6-10
{11}
7000 м слаб. дождь 10/0 200 м
[]
+16.8 +16.5 98 +16 +16 1002.2 1001.1 4
06 19.08 Ю 5-8
{9}
18 км в посл. час морось {ливн. осадки, дождь} 10/10 200 м
[]
+18.2 +17.5 96 +18 +18 1002.0 1000.9 +16.4 +18.5 26
09 19.08 З 5-8
{9}
50 км {ливн. осадки, дождь} 8/0 600 м
[]
+19.1 +15.1 78 +20 +23 1005.2 1004.2
12 19.08 ЮЗ 5-10
{10}
40 км {ливн. осадки, дождь} 6/0 600 м
[]
+20.0 +13.5 66 +22 +25 комфорт 1007.5 1006.4
15 19.08 ЮЗ 3-7
{8}
50 км 4/4 600 м
[]
+19.6 +13.2 67 +21 +23 комфорт 1009.4 1008.3
18 19.08 ЮЗ 3-5
{8}
50 км ясно +16.9 +13.6 81 +17 +17 1010.8 1009.7 +16.9 +20.8
21 19.08 Ю 3-4
{7}
35 км ясно +16.2 +14.2 88 +16 +16 1011.8 1010.7
00 20.08 Ю 3-4
{5}
28 км 8/6 300 м
[]
+16.9 +15.6 92 +17 +17 1012.2 1011.1
03 20.08 Ю 3-4
{7}
23 км 8/3 200 м
[]
+16.5 +15.6 94 +16 +16 1013.4 1012.3
06 20.08 ЮЗ 3-6
{6}
45 км 9/9 300 м
[]
+18.1 +15.0 82 +18 +19 1014.7 1013.6 +15.9 +18.2
09 20.08 ЮЗ 5-8
{9}
50 км ясно +20.5 +11.9 58 +22 +27 комфорт 1015.9 1014.8
12 20.08 ЮЗ 5-9
{11}
30 км 4/0 600 м
[]
+19.7 +12.4 63 +21 +25 комфорт 1017.1 1016.0
15 20.08 ЮЗ 5-9
{9}
40 км 8/0 1000 м
[]
+18.6 +13.4 72 +19 +19 1017.7 1016.6
18 20.08 ЮЗ 3-6
{9}
40 км 6/6 600 м
[]
+17.3 +13.9 80 +17 +17 1018.3 1017.3 +17.3 +21.5
21 20.08 Ю 3-5
{6}
35 км 1/0 300 м
[]
+16.4 +14.7 90 +16 +16 1018.9 1017.8
00 21.08 Ю 1-3
{3}
18 км ясно +14.5 +14.1 97 +15 +15 1019.5 1018.3
03 21.08 ЮЗ 2-3
{5}
24 км ясно +15.3 +14.8 97 +15 +15 1019.9 1018.8
06 21.08 ЮЗ 3-4
{5}
45 км ясно +19.1 +13.1 68 +20 +23 1020.3 1019.2 +14.3 +19.1
09 21.08 ЮЗ 4-7
{8}
45 км 3/0 600 м
[]
+20.5 +13.3 63 +23 +28 комфорт 1020.4 1019.3
12 21.08 ЮЗ 4-6
{8}
30 км ясно +21.2 +11.1 52 +23 +29 комфорт 1019.9 1018.8
15 21.08 ЮЗ 5-7
{7}
50 км ясно +19.6 +10.3 55 +21 +22 комфорт 1019.7 1018.7
18 21.08 ЮЗ 2-4
{6}
50 км ясно +16.4 +12.4 77 +17 +17 1020.2 1019.1 +16.4 +21.8
21 21.08 ЮЗ 2-3
{4}
50 км 9/8 1000 м
[]
+15.9 +13.2 84 +16 +16 1020.2 1019.1
00 22.08 ЮЗ 1-3
{3}
50 км 5/0
[]
+14.0 +13.2 95 +14 +14 1020.3 1019.2
03 22.08 ЮЗ 1-2
{3}
30 км ясно +12.0 +11.7 98 +12 +12 1020.7 1019.6
06 22.08 З 4-7
{7}
50 км 1/1 600 м
[]
+17.4 +12.5 73 +17 +19 1021.8 1020.7 +11.7 +17.4
09 22.08 З 4-7
{8}
50 км 8/0 600 м
[]
+19.3 +11.9 62 +20 +24 1022.8 1021.7
12 22.08 З 4-8
{8}
40 км ясно +20.4 +10.6 53 +22 +28 комфорт 1023.3 1022.2
15 22.08 ЮЗ 4-7
{8}
50 км ясно +19.0 +11.5 62 +20 +22 1023.2 1022.2
18 22.08 ЮЗ 2-5
{7}
45 км ясно +16.3 +12.6 79 +16 +16 1023.3 1022.2 +16.3 +21.0
21 22.08 Ю 3-6
{6}
45 км 9/9 2000 м
[]
+16.8 +14.1 84 +17 +17 1022.9 1021.8
00 23.08 З 1-3
{8}
45 км в посл. час дождь {ливн. осадки} 9/1 600 м
[]
+14.6 +13.8 95 +15 +15 1022.3 1021.2 0.6
03 23.08 ЮВ 3-5
{5}
17 км дождь {ливн. осадки} 10/10 600 м
[]
+14.0 +13.4 96 +13 +13 1021.2 1020.1 2
06 23.08 ЮЗ 4-7
{8}
40 км {ливн. осадки, дождь} 9/4 300 м
[]
+17.4 +15.1 86 +17 +18 1019.8 1018.7 +13.9 +17.5 4
09 23.08 ЮЗ 6-10
{11}
45 км 6/1 600 м
[]
+19.8 +12.6 63 +21 +23 комфорт 1019.6 1018.5
12 23.08 ЮЗ 4-8
{10}
24 км слаб. дождь {морось} 9/5 600 м
[]
+17.7 +13.8 78 +17 +19 1018.5 1017.4
15 23.08 ЮЗ 3-8
{8}
20 км слаб. дождь 10/0 200 м
[]
+15.9 +15.2 96 +15 +16 1016.3 1015.2 0.3
18 23.08 ЮЗ 4-7
{8}
45 км {ливн. осадки, дождь} 9/9 300 м
[]
+16.8 +15.4 91 +16 +16 1015.8 1014.7 +15.6 +20.2 0.8
21 23.08 З 2-4
{6}
50 км 5/0 300 м
[]
+16.2 +14.9 92 +16 +16 1016.7 1015.6
00 24.08 З 2-3
{4}
28 км 9/0
[]
+15.1 +14.8 98 +15 +15 1017.9 1016.8
03 24.08 З 2-3
{3}
19 км ясно +13.5 +13.4 99 +13 +13 1019.8 1018.7
06 24.08 З 3-5
{5}
50 км ясно +17.1 +12.9 76 +17 +19 1021.7 1020.6 +13.3 +17.1
09 24.08 СЗ 4-8
{8}
50 км 1/0 1000 м
[]
+19.2 +9.7 54 +20 +25 1023.7 1022.6
12 24.08 З 4-8
{9}
40 км ясно +20.4 +9.9 51 +22 +27 комфорт 1024.7 1023.6
15 24.08 З 3-6
{7}
50 км ясно +18.5 +10.0 58 +19 +21 1025.8 1024.7
18 24.08 З 2-3
{4}
50 км 3/0
[]
+15.8 +11.2 74 +16 +16 1026.7 1025.6 +15.8 +20.6
21 24.08 штиль 0
{3}
50 км ясно +11.7 +10.7 94 +11 +11 1027.3 1026.2
00 25.08 штиль 0 30 км ясно +9.6 +9.5 99 +9 +9 1028.1 1027.0
03 25.08 штиль 0 45 км 3/0
[]
+8.5 +8.2 98 +7 +7 1028.3 1027.1
06 25.08 Ю 2-3
{3}
50 км ясно +15.6 +12.9 84 +15 +18 1028.3 1027.2 +8.2 +15.8
09 25.08 ЮЗ 3-6
{6}
50 км ясно +20.1 +12.8 63 +22 +29 комфорт 1027.9 1026.8
12 25.08 ЮЗ 6-10
{10}
50 км ясно +20.3 +14.2 68 +22 +26 комфорт 1026.9 1025.8

 

Местоположение метеостанции Турку (Финляндия): широта 60.45 долгота 22.18 высота над уровнем моря 8 м.

В архиве по умолчанию представлена погода в Турку за последнюю неделю. Архивные данные за месяц целиком и за предыдущие месяцы, начиная с января 2011 года, Вы можете получить, выбрав интересующий диапазон дат из раскрывающегося списка и нажав кнопку "Ввод!".


*Определитесь, кто Вы:
робот инопланетянин человек

Внимание! Время в таблицах - всемирное. Для получения местного времени необходимо прибавить поправку, которая равна 1 ч.

Смотрите также архив погоды в соседних городах и на ближайших метеорологических станциях:

Погода на Острове Раякари (Финляндия) (9 км)
Погода в Пиккио Йолтoнен (Финляндия) (21 км)
Погода в Кимиёнсаари (Финляндия) (45 км)
Погода на Острове Фагерхольм (Финляндия) (46 км)
Погода в Сало (Финляндия) (52 км)
Погода на Вано (Финляндия) (65 км)
Погода в Кустави Исокари (Финляндия) (70 км)
Погода в Аэропорту Сало Киикала (Финляндия) (81 км)
Погода в Кумлинге (Финляндия) (81 км)
Погода в Ханко (Финляндия) (82 км)

Пояснения к столбцам:

Ветер - указаны скорость ветра в м/с - средняя за 10 мин, порывы в срок и между сроками (в фигурных скобках) и направление, откуда дует ветер: С - северный, СВ - северо-восточный, В - восточный, ЮВ - юго-восточный, Ю - южный, ЮЗ - юго-западный, З - западный, СЗ - северо-западный.
Видимость - горизонтальная дальность видимости в метрах или километрах. При видимости от 1 до 10 км при отсутствии осадков обычно наблюдается дымка, при ухудшении видимости до 1 км и менее - туман. В сухую погоду видимость может ухудшаться дымом, пылью или мглою.
Явления - указаны атмосферные явления, наблюдавшиеся в срок или в последний час перед сроком; фигурными скобками обозначены явления, наблюдавшиеся между сроками (за 1-3 часа до срока); квадратными скобками обозначены град или гололедные отложения с указанием их диаметра в мм.
Облачность - указаны через наклонную черту общая и нижняя облачность в баллах и высота нижней границы облаков в метрах; квадратными скобками обозначены формы облаков: Ci - перистые, Cs - перисто-слоистые, Cc - перисто-кучевые, Ac - высококучевые, As - высокослоистые, Sc - слоисто-кучевые, Ns - слоисто-дождевые, Cu - кучевые, Cb - кучево-дождевые. Подробнее классификацию облаков см. в Атласе облаков (PDF).
T - Температура воздуха - температура, измеренная на высоте 2 м над землей.
Td - Температура точки росы - температура, при понижении до которой содержащийся в воздухе водяной пар достигнет насыщения.
f - Относительная влажность воздуха - влажноcть воздуха, измеренная на высоте 2 м над землей.
Te - Эффективная температура - температура, которую ощущает одетый по сезону человек в тени. Характеристика душности погоды. При расчете учитывается влияние влажности воздуха и скорости ветра на теплоощущения человека.
Tes - Эффективная температура на солнце - температура, которую ощущает человек, с поправкой на солнечный нагрев. Характеристика знойности погоды. Зависит от высоты солнца над горизонтом, облачности и скорости ветра. Ночью, в пасмурную погоду, а также при ветре 12 м/с и более поправка равна нулю.
P - Атмосферное давление - приведенное к уровню моря атмосферное давление.
Po - Атмосферное давление - измеренное на уровне метеостанции атмосферное давление.
Tmin - Минимальная температура - минимум температуры воздуха на высоте 2 м над землей.
Tmax - Максимальная температура - максимум температуры воздуха на высоте 2 м над землей.
R - Количество осадков - Количество выпавших осадков за период времени, мм. При наведении курсора мыши на число - период времени, за который выпало указанное количество осадков.
R24 - Количество осадков - Количество выпавших осадков за 24 часа, мм.
S - Снежный покров - Высота снежного покрова, см. При наведении курсора мыши на число - состояние снежного покрова и степень покрытия местности в баллах.